This is the latest recevied weather packets stored in our database for station/object SP2ARK-10. If no packets are shown the sender has not sent any weather packets the latest 10 day(s).
| Time | Temp. | Humidity | Pressure | Rain* | Wind** | Luminosity | Snow |
|---|---|---|---|---|---|---|---|
| 1777493752 | 10° C | 57% | 1035.9 hPa | - | - | - | - |
| 1777492852 | 10° C | 56% | 1035.8 hPa | - | - | - | - |
| 1777491952 | 10.56° C | 56% | 1035.7 hPa | - | - | - | - |
| 1777491051 | 11.11° C | 56% | 1035.7 hPa | - | - | - | - |
| 1777490150 | 11.11° C | 56% | 1035.5 hPa | - | - | - | - |
| 1777489248 | 11.11° C | 60% | 1035.5 hPa | - | - | - | - |
| 1777488347 | 11.11° C | 54% | 1035.3 hPa | - | - | - | - |
| 1777487446 | 11.67° C | 53% | 1035 hPa | - | - | - | - |
| 1777486546 | 11.67° C | 52% | 1035 hPa | - | - | - | - |
| 1777485644 | 11.67° C | 51% | 1034.9 hPa | - | - | - | - |
| 1777484744 | 12.22° C | 51% | 1035 hPa | - | - | - | - |
| 1777483843 | 12.78° C | 50% | 1034.9 hPa | - | - | - | - |
| 1777482942 | 12.78° C | 49% | 1034.8 hPa | - | - | - | - |
| 1777482040 | 13.33° C | 49% | 1034.7 hPa | - | - | - | - |
| 1777481140 | 13.33° C | 49% | 1034.7 hPa | - | - | - | - |
| 1777480239 | 13.89° C | 48% | 1034.5 hPa | - | - | - | - |
| 1777479338 | 13.89° C | 48% | 1034.5 hPa | - | - | - | - |
| 1777478437 | 14.44° C | 49% | 1034.4 hPa | - | - | - | - |
| 1777477536 | 14.44° C | 48% | 1034.3 hPa | - | - | - | - |
| 1777476636 | 14.44° C | 48% | 1034.3 hPa | - | - | - | - |
| 1777475735 | 15° C | 48% | 1034.3 hPa | - | - | - | - |
| 1777474834 | 13.89° C | 48% | 1034.3 hPa | - | - | - | - |
| 1777473933 | 15° C | 48% | 1034.4 hPa | - | - | - | - |
| 1777473033 | 14.44° C | 48% | 1034.2 hPa | - | - | - | - |
| 1777472132 | 13.89° C | 48% | 1034.2 hPa | - | - | - | - |
* Rain since midnight (hover to see other rain measurements)
** Current wind speed in m/s (hover to see current wind gust speed)